Volver al catálogo

FENGYUN 1C DEB

ActivoPO
NORAD 46450·DEBRIS·🇨🇳 China

Lanzado May 10, 1999 desde Taiyuan Satellite Launch Center

Loading…

Próximos Pases (próximas 24 horas)

TLE

ActualizadoSource: Space-Track

Época: Sep 13, 2026, 11:52 UTC

1 46450U 99025EZF 26256.49450696  .00001793  00000-0  97563-3 0  9991
2 46450  98.0648  88.0635 0180222 355.8730   4.0945 14.05394818649769

Sigue FENGYUN 1C DEB en tiempo real con AllMySat

Download on the App Store